STARLINK-1968 (47569 NORAD) Tracking and Keplerian Element Data

This shows tracking and keplerian element data for the satellite.

Feedback or suggestion? Click here.




ElementValue
Catalog47569
NameSTARLINK-1968
Epoch Orbit177
Epoch Day101.91668981
Epoch Year2021
RAAN161.5357
Inclination53.0531
Eccentricity0.0003833
Argument of Perigee9.2565
Mean Anonmoly84.6872
Mean Motion15.49347354
Decay Rate7.05E-06
L11 47569U 21009X 21101.91668981 .00000705 00000-0 20760-4 0 9997
L22 47569 53.0531 161.5357 0003833 9.2565 84.6872 15.49347354 1777

Live tracking and technical data element details for STARLINK-1968 (NORAD 47569). STARLINK-1968 can be tracked NOW for your location showing map with azimuth and elevation plus other details from your city location.

Track the satellite on the map from your city or location and see movement details for azimuth, elevation, latitude, longitude, range, height, and movement on the map or in text.







IsCatalogInMostPopularTable: catalog: 47569, numindb: 16
Update: records affected: 1



GetName: 47569 STARLINK-1968

Hit Count: updated at: Tue, 13 Apr 2021 04:40:41 GMT